GW4674 Weather Reports


Display with metric or nautical units.
time (UTC)temp
F
wind
direction
speed
MPH
gust
MPH
rain 1hr
in
rain 24hr
in
rain mn
in
humidity
%
barometer
mb
20260509175228 62 187 3.0 4.0 0.00 0.02 0.02 72 1017.2
20260509174725 62 246 2.0 5.0 0.00 0.02 0.02 68 1017.1
20260509174220 62 269 2.0 4.0 0.00 0.02 0.02 68 1017.1
20260509173716 62 167 0.0 3.0 0.00 0.02 0.02 67 1017.1
20260509173212 63 164 1.0 4.0 0.00 0.02 0.02 69 1017.0
20260509172708 62 196 1.0 4.0 0.00 0.02 0.02 69 1017.2
20260509172205 62 228 2.0 4.0 0.00 0.02 0.02 71 1017.3
20260509171700 62 214 3.0 3.0 0.00 0.02 0.02 71 1017.6
20260509171156 62 222 3.0 3.0 0.00 0.02 0.02 71 1017.5
20260509170654 63 157 0.0 3.0 0.00 0.02 0.02 70 1017.6
20260509170150 62 193 2.0 3.0 0.00 0.02 0.02 72 1017.6
20260509165648 61 244 1.0 3.0 0.00 0.02 0.02 75 1017.7
20260509165144 61 358 2.0 3.0 0.00 0.02 0.02 74 1018.0
20260509164640 61 182 1.0 2.0 0.00 0.02 0.02 78 1017.8
20260509164136 60 340 2.0 3.0 0.00 0.02 0.02 76 1018.1
20260509163634 60 278 2.0 2.0 0.00 0.02 0.02 77 1018.4
20260509163129 59 245 1.0 2.0 0.00 0.02 0.02 78 1018.5
20260509162627 59 279 2.0 4.0 0.00 0.02 0.02 78 1018.7
20260509162122 59 186 2.0 4.0 0.00 0.02 0.02 77 1018.6
20260509161619 59 204 1.0 3.0 0.00 0.02 0.02 81 1018.5
20260509161114 58 202 1.0 4.0 0.00 0.02 0.02 80 1018.5
20260509160610 59 253 2.0 3.0 0.00 0.02 0.02 82 1018.7
20260509160105 57 232 3.0 4.0 0.00 0.02 0.02 82 1018.5
20260509155602 57 227 2.0 4.0 0.00 0.02 0.02 83 1018.7
20260509155058 57 212 2.0 3.0 0.00 0.02 0.02 85 1018.7
20260509154554 56 195 1.0 2.0 0.00 0.02 0.02 85 1018.8
20260509154052 55 215 2.0 3.0 0.00 0.02 0.02 85 1018.8
20260509153549 56 245 0.0 2.0 0.00 0.02 0.02 86 1018.8
20260509153046 55 203 2.0 4.0 0.00 0.02 0.02 87 1018.9
20260509152541 55 200 0.0 2.0 0.00 0.02 0.02 89 1018.8
20260509152039 55 185 3.0 5.0 0.00 0.02 0.02 88 1018.8
20260509151535 55 155 0.0 4.0 0.00 0.02 0.02 89 1018.9
20260509151033 55 202 0.0 4.0 0.00 0.02 0.02 87 1018.9
20260509150530 55 243 4.0 4.0 0.00 0.02 0.02 89 1018.9
20260509150029 55 209 4.0 4.0 0.00 0.02 0.02 88 1018.8
20260509145524 55 244 0.0 2.0 0.00 0.02 0.02 89 1018.9
20260509145019 55 246 1.0 4.0 0.00 0.02 0.02 88 1018.7
20260509144516 55 178 1.0 4.0 0.00 0.02 0.02 88 1018.7
20260509144014 55 183 2.0 3.0 0.00 0.02 0.02 89 1019.1
20260509143510 55 196 2.0 3.0 0.00 0.02 0.02 89 1019.0
20260509143009 55 205 1.0 4.0 0.00 0.02 0.02 88 1018.7
20260509142504 54 250 2.0 4.0 0.00 0.02 0.02 89 1018.6
20260509141959 54 173 2.0 2.0 0.00 0.02 0.02 90 1018.4
20260509141456 54 211 2.0 4.0 0.00 0.02 0.02 89 1018.7
20260509140953 53 127 0.0 4.0 0.00 0.02 0.02 89 1018.7
20260509140449 53 212 5.0 5.0 0.00 0.02 0.02 90 1018.6
20260509135948 54 216 2.0 3.0 0.00 0.02 0.02 92 1018.8
20260509135444 53 221 3.0 4.0 0.00 0.02 0.02 91 1018.9
20260509134942 54 216 3.0 5.0 0.00 0.02 0.02 94 1019.0
20260509134439 53 155 1.0 3.0 0.00 0.02 0.02 94 1019.0
20260509133937 52 213 2.0 4.0 0.00 0.02 0.02 95 1019.0
20260509133433 52 180 2.0 2.0 0.00 0.02 0.02 95 1019.0
20260509132931 51 189 2.0 2.0 0.00 0.02 0.02 95 1018.8
20260509132429 51 220 2.0 4.0 0.00 0.02 0.02 96 1019.2
20260509131926 51 191 2.0 3.0 0.00 0.02 0.02 97 1019.1
20260509131423 50 221 0.0 3.0 0.00 0.02 0.02 97 1018.9
20260509130920 51 212 3.0 3.0 0.00 0.02 0.02 97 1019.0
20260509130414 50 206 2.0 3.0 0.00 0.02 0.02 97 1019.0
20260509125912 50 313 0.0 3.0 0.02 0.02 0.02 97 1019.2
20260509125409 50 190 1.0 4.0 0.02 0.02 0.02 97 1019.3
20260509124905 49 217 3.0 3.0 0.00 0.01 0.01 97 1019.0
20260509124402 49 261 2.0 3.0 0.00 0.01 0.01 97 1019.0
20260509123900 49 222 1.0 4.0 0.00 0.01 0.01 97 1019.2
20260509123357 49 208 2.0 3.0 0.00 0.01 0.01 97 1019.4
20260509122852 49 297 1.0 3.0 0.00 0.01 0.01 97 1019.4
20260509122349 49 215 3.0 3.0 0.00 0.01 0.01 97 1019.7
20260509121846 49 207 2.0 3.0 0.02 0.01 0.01 97 1019.8
20260509121343 49 352 1.0 2.0 0.02 0.01 0.01 97 1019.8
20260509120842 48 245 2.0 2.0 0.00 0.01 0.01 96 1019.6
20260509120339 48 282 1.0 2.0 0.00 0.01 0.01 96 1019.8
20260509115837 48 214 1.0 3.0 0.00 0.01 0.01 96 1019.6
20260509115334 48 311 0.0 2.0 0.00 0.01 0.01 95 1019.7
20260509114831 48 246 0.0 1.0 0.00 0.01 0.01 96 1019.8
20260509114330 47 253 2.0 2.0 0.00 0.01 0.01 97 1019.7
20260509113829 47 201 0.0 3.0 0.00 0.01 0.01 97 1019.5
20260509113325 47 205 2.0 3.0 0.00 0.01 0.01 98 1019.6
20260509112822 46 242 2.0 2.0 0.00 0.01 0.01 98 1019.4
20260509112319 46 198 2.0 2.0 0.00 0.01 0.01 98 1019.4
20260509111816 46 199 0.0 2.0 0.00 0.01 0.01 98 1019.5
20260509111313 46 142 2.0 3.0 0.00 0.01 0.01 98 1019.6
20260509110811 46 208 2.0 3.0 0.00 0.01 0.01 98 1019.6
20260509110307 46 251 3.0 3.0 0.00 0.01 0.01 98 1019.6
20260509105806 46 272 1.0 3.0 0.00 0.01 0.01 97 1019.6
20260509105306 46 263 0.0 3.0 0.00 0.01 0.01 97 1019.6
20260509104759 46 280 2.0 4.0 0.00 0.01 0.01 97 1019.5
20260509104256 46 277 0.0 3.0 0.00 0.01 0.01 97 1019.4
20260509103754 46 304 2.0 3.0 0.00 0.01 0.01 97 1019.2
20260509103251 46 228 2.0 4.0 0.00 0.01 0.01 97 1019.0
20260509102750 47 259 1.0 2.0 0.00 0.01 0.01 96 1019.1
20260509102246 47 11 2.0 2.0 0.00 0.01 0.01 96 1019.3
20260509101743 47 249 0.0 2.0 0.00 0.01 0.01 96 1019.0
20260509101239 47 257 1.0 2.0 0.00 0.01 0.01 96 1019.3
20260509100736 47 222 0.0 3.0 0.00 0.01 0.01 97 1019.3
20260509100234 47 203 2.0 3.0 0.00 0.01 0.01 97 1019.0
20260509095730 46 176 3.0 3.0 0.00 0.01 0.01 97 1019.1
20260509095227 46 246 0.0 2.0 0.00 0.01 0.01 97 1019.2
20260509094725 47 201 2.0 2.0 0.00 0.01 0.01 97 1019.5
20260509094221 47 176 2.0 3.0 0.00 0.01 0.01 96 1019.4
20260509093719 47 182 2.0 3.0 0.00 0.01 0.01 96 1019.1
20260509093216 47 172 0.0 3.0 0.00 0.01 0.01 96 1019.3
20260509092714 47 165 3.0 3.0 0.00 0.01 0.01 95 1019.2
20260509092212 47 187 2.0 2.0 0.00 0.01 0.01 95 1019.3
20260509091710 47 201 1.0 2.0 0.00 0.01 0.01 95 1019.3
20260509091206 47 240 2.0 2.0 0.00 0.01 0.01 95 1019.0
20260509090704 48 297 0.0 2.0 0.00 0.01 0.01 94 1019.1
20260509090201 48 205 1.0 2.0 0.00 0.01 0.01 95 1019.2
20260509085658 48 204 1.0 2.0 0.00 0.01 0.01 96 1019.4
20260509085155 47 235 0.0 1.0 0.00 0.01 0.01 95 1019.2
20260509084652 47 224 1.0 2.0 0.00 0.01 0.01 96 1019.3
20260509084148 47 198 2.0 4.0 0.00 0.01 0.01 96 1019.2
20260509083646 47 211 1.0 2.0 0.00 0.01 0.01 96 1019.2
20260509083142 47 223 2.0 2.0 0.00 0.01 0.01 96 1019.2
20260509082640 47 184 1.0 3.0 0.00 0.01 0.01 96 1019.1
20260509082136 47 216 2.0 3.0 0.00 0.01 0.01 96 1019.3
20260509081633 47 169 2.0 3.0 0.00 0.01 0.01 96 1019.2
20260509081131 47 147 1.0 3.0 0.00 0.01 0.01 96 1019.1
20260509080629 47 148 0.0 2.0 0.02 0.01 0.01 95 1019.2
20260509080126 47 209 1.0 2.0 0.02 0.01 0.01 95 1019.3
20260509075624 47 180 1.0 2.0 0.02 0.00 0.00 94 1019.3
20260509075122 47 218 2.0 3.0 0.02 0.00 0.00 93 1019.2
20260509074618 47 167 1.0 3.0 0.00 0.00 0.00 92 1019.4
20260509074115 48 131 0.0 2.0 0.00 0.00 0.00 92 1018.9
20260509073612 49 271 0.0 2.0 0.00 0.00 0.00 90 1019.1
20260509073108 49 209 0.0 2.0 0.00 0.00 0.00 91 1019.2
20260509072605 48 198 2.0 3.0 0.00 0.00 0.00 91 1019.2
20260509072102 48 226 0.0 3.0 0.00 0.00 0.00 92 1019.2
20260509071558 48 205 1.0 3.0 0.00 0.00 0.00 92 1019.1
20260509071056 47 202 2.0 3.0 0.00 0.00 0.00 92 1019.2
20260509070553 47 225 2.0 2.0 0.00 0.00 0.00 93 1019.0
20260509070043 47 268 2.0 2.0 0.00 0.00 0.00 92 1019.0
20260509065538 47 167 2.0 2.0 0.00 0.00 0.00 92 1019.2
20260509065030 47 177 2.0 3.0 0.00 0.00 0.00 91 1019.1
20260509064527 47 181 2.0 3.0 0.00 0.00 0.00 91 1019.2
20260509064025 47 184 1.0 2.0 0.00 0.00 0.00 91 1019.0
20260509063525 47 185 1.0 2.0 0.00 0.00 0.00 91 1019.0
20260509063023 47 169 1.0 3.0 0.00 0.00 0.00 91 1019.2
20260509062520 47 211 2.0 3.0 0.00 0.00 0.00 90 1019.5
20260509062018 47 193 1.0 2.0 0.00 0.00 0.00 90 1019.4
20260509061514 47 200 1.0 2.0 0.00 0.00 0.00 89 1019.5
20260509061012 47 160 2.0 3.0 0.00 0.00 0.00 89 1019.5
20260509060509 48 189 2.0 3.0 0.00 0.00 0.00 89 1019.6
20260509060005 48 159 2.0 2.0 0.00 0.00 0.00 89 1019.5
20260509055500 48 223 2.0 2.0 0.00 0.00 0.00 89 1019.7
20260509054957 47 221 2.0 2.0 0.00 0.00 0.00 89 1019.8
20260509054453 47 183 2.0 2.0 0.00 0.00 0.00 89 1019.7
20260509053952 47 171 2.0 3.0 0.00 0.00 0.00 88 1019.8
20260509053449 48 208 1.0 2.0 0.00 0.00 0.00 88 1019.7
20260509052946 48 191 2.0 2.0 0.00 0.00 0.00 88 1019.6
20260509052444 48 156 2.0 2.0 0.00 0.00 0.00 88 1019.7
20260509051942 48 214 0.0 2.0 0.00 0.00 0.00 87 1019.6
20260509051439 48 185 2.0 3.0 0.00 0.00 0.00 86 1019.7
20260509050936 48 198 2.0 3.0 0.00 0.00 0.00 87 1019.6
20260509050432 48 226 0.0 2.0 0.00 0.00 0.00 88 1019.4
20260509045929 48 190 2.0 2.0 0.00 0.00 0.00 87 1019.7
20260509045427 48 239 1.0 2.0 0.00 0.00 0.00 87 1019.6
20260509044923 48 214 0.0 1.0 0.00 0.00 0.00 87 1019.7
20260509044421 48 193 1.0 2.0 0.00 0.00 0.00 86 1019.7
20260509043918 48 164 1.0 2.0 0.00 0.00 0.00 86 1019.7
20260509043414 48 192 1.0 2.0 0.00 0.00 0.00 84 1019.7
20260509042909 48 173 1.0 2.0 0.00 0.00 0.00 85 1019.7
20260509042407 49 278 0.0 2.0 0.00 0.00 0.00 84 1019.8
20260509041903 49 187 1.0 2.0 0.00 0.00 0.00 81 1019.8
20260509041400 49 171 1.0 2.0 0.00 0.00 0.00 83 1019.7
20260509040858 49 221 2.0 3.0 0.00 0.00 0.00 80 1019.8
20260509040356 48 176 1.0 3.0 0.00 0.00 0.00 82 1019.9
20260509035853 47 126 0.0 2.0 0.00 0.01 0.01 86 1019.7
20260509035349 47 160 1.0 2.0 0.00 0.01 0.01 86 1019.8
20260509034846 48 227 2.0 3.0 0.00 0.01 0.01 86 1019.9
20260509034338 48 215 1.0 2.0 0.00 0.01 0.01 85 1019.8
20260509033834 48 221 1.0 2.0 0.00 0.01 0.01 83 1019.9
20260509033332 48 200 2.0 3.0 0.00 0.01 0.01 82 1019.8
20260509032828 48 162 2.0 3.0 0.00 0.01 0.01 82 1019.7
20260509032325 48 145 1.0 3.0 0.00 0.01 0.01 81 1019.7
20260509031823 48 166 2.0 3.0 0.00 0.01 0.01 81 1019.9
20260509031320 48 123 2.0 3.0 0.00 0.01 0.01 80 1019.6
20260509030818 48 105 2.0 2.0 0.00 0.01 0.01 80 1019.5
20260509030316 49 158 1.0 5.0 0.00 0.01 0.01 78 1019.6
20260509025812 49 182 2.0 3.0 0.00 0.01 0.01 79 1019.8
20260509025308 48 170 2.0 3.0 0.00 0.01 0.01 85 1019.4
20260509024803 48 218 2.0 3.0 0.00 0.01 0.01 84 1019.2
20260509024300 47 164 1.0 3.0 0.00 0.01 0.01 84 1019.6
20260509023757 48 211 2.0 3.0 0.00 0.01 0.01 83 1019.4
20260509023254 48 198 2.0 3.0 0.00 0.01 0.01 81 1019.2
20260509022750 50 184 3.0 3.0 0.00 0.01 0.01 78 1019.2
20260509022248 50 179 1.0 2.0 0.00 0.01 0.01 75 1019.1
20260509021745 50 185 2.0 3.0 0.00 0.01 0.01 76 1019.2
20260509021242 49 193 1.0 2.0 0.00 0.01 0.01 74 1019.1
20260509020740 49 140 0.0 2.0 0.00 0.01 0.01 79 1019.1
20260509020237 48 167 1.0 2.0 0.00 0.01 0.01 82 1019.2
20260509015735 48 142 0.0 2.0 0.00 0.01 0.01 81 1019.4
20260509015233 48 252 1.0 2.0 0.00 0.01 0.01 79 1019.3
20260509014729 48 166 1.0 2.0 0.00 0.01 0.01 79 1019.2
20260509014226 48 195 2.0 3.0 0.00 0.01 0.01 78 1019.3
20260509013723 49 192 2.0 3.0 0.00 0.01 0.01 73 1019.1
20260509013218 49 137 1.0 2.0 0.00 0.01 0.01 76 1019.1
20260509012715 49 152 0.0 2.0 0.00 0.01 0.01 76 1019.1
20260509012212 49 170 0.0 3.0 0.00 0.01 0.01 74 1019.0
20260509011709 49 186 1.0 3.0 0.00 0.01 0.01 73 1019.0
20260509011207 49 165 2.0 2.0 0.00 0.01 0.01 73 1018.9
20260509010705 49 157 3.0 3.0 0.00 0.01 0.01 72 1018.9
20260509010200 49 152 2.0 3.0 0.00 0.01 0.01 72 1018.9
20260509005658 49 177 2.0 4.0 0.00 0.01 0.01 72 1018.6
20260509005155 50 144 3.0 3.0 0.00 0.01 0.01 71 1018.5
20260509004650 50 182 2.0 3.0 0.00 0.01 0.01 71 1018.5
20260509004148 51 162 2.0 3.0 0.00 0.01 0.01 70 1018.4
20260509003646 51 186 2.0 3.0 0.00 0.01 0.01 67 1018.3
20260509003143 51 163 0.0 2.0 0.00 0.01 0.01 66 1018.3
20260509002640 51 173 2.0 3.0 0.00 0.01 0.01 67 1018.3
20260509002137 52 159 0.0 3.0 0.00 0.01 0.01 65 1018.1
20260509001635 52 193 2.0 3.0 0.00 0.01 0.01 65 1017.9
20260509001130 52 186 1.0 2.0 0.00 0.01 0.01 64 1017.9
20260509000629 53 184 2.0 2.0 0.00 0.01 0.01 64 1018.1
20260509000125 53 120 1.0 2.0 0.00 0.01 0.01 64 1018.0
20260508235623 53 213 1.0 2.0 0.00 0.01 0.01 63 1018.1
20260508235119 54 198 0.0 2.0 0.00 0.01 0.01 62 1017.8
20260508234617 54 240 1.0 2.0 0.00 0.01 0.01 61 1018.0
20260508234113 54 175 0.0 2.0 0.00 0.01 0.01 61 1017.9
20260508233613 55 221 1.0 2.0 0.00 0.01 0.01 60 1017.9
20260508233110 55 259 2.0 2.0 0.00 0.01 0.01 58 1017.8
20260508232607 55 184 0.0 2.0 0.00 0.01 0.01 57 1017.7
20260508232103 55 274 2.0 2.0 0.00 0.01 0.01 56 1017.6
20260508231601 55 266 0.0 2.0 0.00 0.01 0.01 55 1017.6
20260508231058 56 244 1.0 2.0 0.00 0.01 0.01 55 1017.4
20260508230554 56 183 2.0 4.0 0.00 0.01 0.01 52 1017.5
20260508230051 56 357 0.0 3.0 0.00 0.01 0.01 55 1017.4
20260508225548 56 179 2.0 3.0 0.00 0.01 0.01 53 1017.3
20260508225045 56 211 2.0 2.0 0.00 0.01 0.01 53 1017.4
20260508224543 56 206 4.0 5.0 0.00 0.01 0.01 54 1017.4
20260508224040 56 234 2.0 3.0 0.00 0.01 0.01 53 1017.2
20260508223538 56 226 2.0 2.0 0.00 0.01 0.01 51 1017.2
20260508223035 57 308 2.0 2.0 0.00 0.01 0.01 49 1017.1
20260508222532 58 245 4.0 5.0 0.00 0.01 0.01 48 1017.3
20260508222029 57 267 1.0 6.0 0.00 0.01 0.01 48 1017.0
20260508221525 57 296 2.0 4.0 0.00 0.01 0.01 51 1017.2
20260508221021 59 220 3.0 4.0 0.00 0.01 0.01 48 1017.2
20260508220518 59 251 3.0 4.0 0.00 0.01 0.01 48 1017.2
20260508220014 60 275 3.0 3.0 0.00 0.01 0.01 47 1017.3
20260508215511 59 20 1.0 3.0 0.00 0.01 0.01 51 1017.3
20260508215008 61 309 0.0 3.0 0.00 0.01 0.01 47 1017.4
20260508214505 59 271 1.0 6.0 0.00 0.01 0.01 47 1017.3
20260508214001 59 216 2.0 7.0 0.00 0.01 0.01 47 1017.3
20260508213459 58 228 2.0 5.0 0.00 0.01 0.01 48 1017.2
20260508212954 60 304 2.0 3.0 0.00 0.01 0.01 44 1017.2
20260508212451 59 314 0.0 6.0 0.00 0.01 0.01 47 1017.5
20260508211947 60 239 4.0 5.0 0.00 0.01 0.01 47 1017.5
20260508211443 60 241 3.0 6.0 0.00 0.01 0.01 46 1017.5
20260508210940 60 300 1.0 6.0 0.00 0.01 0.01 46 1017.3
20260508210437 60 232 2.0 6.0 0.00 0.01 0.01 46 1017.2
20260508205933 59 229 3.0 4.0 0.00 0.01 0.01 49 1017.2
20260508205430 59 347 4.0 4.0 0.00 0.01 0.01 47 1017.3
20260508204926 59 327 2.0 4.0 0.00 0.01 0.01 47 1017.3
20260508204424 59 198 5.0 6.0 0.00 0.01 0.01 47 1017.3
20260508203919 58 243 0.0 4.0 0.00 0.01 0.01 50 1017.1
20260508203416 59 348 6.0 6.0 0.00 0.01 0.01 54 1017.2
20260508202911 58 237 2.0 3.0 0.00 0.01 0.01 54 1017.3
20260508202409 59 252 2.0 6.0 0.00 0.01 0.01 52 1017.1
20260508201906 58 229 2.0 4.0 0.00 0.01 0.01 56 1016.9
20260508201403 58 237 1.0 4.0 0.00 0.01 0.01 64 1017.0
20260508200859 56 337 2.0 4.0 0.00 0.01 0.01 62 1017.2
20260508200356 53 304 3.0 4.0 0.00 0.01 0.01 74 1017.3
20260508195851 52 241 2.0 3.0 0.00 0.01 0.01 75 1017.5
20260508195349 51 198 1.0 6.0 0.00 0.01 0.01 79 1017.6
20260508194845 51 283 0.0 2.0 0.00 0.01 0.01 80 1017.8
20260508194342 51 241 4.0 4.0 0.00 0.01 0.01 82 1017.8
20260508193839 52 230 3.0 4.0 0.00 0.01 0.01 86 1017.9
20260508193336 50 238 1.0 3.0 0.02 0.01 0.01 86 1018.0
20260508192832 49 205 1.0 3.0 0.02 0.01 0.01 86 1018.0
20260508192329 48 203 3.0 4.0 0.00 0.01 0.01 83 1018.1
20260508191826 49 358 2.0 6.0 0.00 0.01 0.01 78 1018.1
20260508191319 53 328 2.0 8.0 0.00 0.01 0.01 66 1018.1
20260508190815 55 326 2.0 5.0 0.00 0.01 0.01 54 1017.9
20260508190312 56 270 0.0 3.0 0.00 0.01 0.01 50 1017.6
20260508185808 56 296 2.0 5.0 0.00 0.01 0.01 48 1017.7
20260508185306 56 325 3.0 10.0 0.00 0.01 0.01 49 1017.5
20260508184756 57 240 4.0 6.0 0.00 0.01 0.01 47 1017.4
20260508184254 58 257 4.0 6.0 0.00 0.01 0.01 46 1017.3
20260508183750 58 258 3.0 9.0 0.00 0.01 0.01 46 1017.1
20260508183247 59 228 2.0 5.0 0.00 0.01 0.01 47 1017.1
20260508182743 60 238 6.0 9.0 0.00 0.01 0.01 44 1017.2
20260508182240 60 233 2.0 4.0 0.00 0.01 0.01 46 1016.8
20260508181736 59 225 3.0 4.0 0.00 0.01 0.01 46 1017.0
20260508181233 58 268 0.0 6.0 0.00 0.01 0.01 48 1017.0
20260508180729 59 294 2.0 7.0 0.00 0.01 0.01 45 1017.0
20260508180226 59 218 1.0 4.0 0.00 0.01 0.01 49 1017.1
20260508175723 59 331 2.0 4.0 0.00 0.01 0.01 50 1017.2